Stations météo

réclame
Mon MeteoGroup
Woensdrecht, Pays-Bas (6340): Température de l'air & dewpoint: 12.11.2017 00:00:00 - 18.11.2017 00:00:00 (CET)Woensdrecht, Pays-Bas (6340): Température de l'air 5cm: 12.11.2017 00:00:00 - 18.11.2017 00:00:00 (CET)Woensdrecht, Pays-Bas (6340): Vitesse du vent & gusts: 12.11.2017 00:00:00 - 18.11.2017 00:00:00 (CET)Woensdrecht, Pays-Bas (6340): Direction du vent: 12.11.2017 00:00:00 - 18.11.2017 00:00:00 (CET)Woensdrecht, Pays-Bas (6340): reduced air pressure: 12.11.2017 00:00:00 - 18.11.2017 00:00:00 (CET)Woensdrecht, Pays-Bas (6340): visibility: 12.11.2017 00:00:00 - 18.11.2017 00:00:00 (CET)
Date & Time tt [°C] td [°C] tt 5cm [°C] ff [km/h] ff [knt] fx [km/h] fx [knt] dd ppp [hPa] vv [km]
18.11.2017 00:00:00 1,0 1,0 -1,1 4 2 - - - 1025,8 10
17.11.2017 23:00:00 0,2 0,2 -3,0 2 1 7 4 - 1026,3 10
17.11.2017 22:00:00 -0,1 -0,1 -2,7 2 1 - - SW 1026,5 9
17.11.2017 21:00:00 0,7 0,7 -1,7 2 1 4 2 - 1026,7 9
17.11.2017 20:00:00 1,5 1,5 -0,6 0 0 4 2 N 1026,8 10
17.11.2017 19:00:00 2,1 1,9 0,2 2 1 - - WNW 1027,1 10
17.11.2017 18:00:00 3,4 3,4 1,3 0 0 7 4 N 1027,3 10
17.11.2017 17:00:00 5,3 3,6 3,0 8 4 14 8 WNW 1027,5 10
17.11.2017 16:00:00 9,0 4,4 9,1 8 4 - - W 1027,2 10
17.11.2017 15:00:00 9,2 3,2 9,3 9 5 14 8 W 1027,7 10
17.11.2017 14:00:00 10,4 0,7 11,8 4 2 11 6 - 1027,8 10
17.11.2017 13:00:00 10,0 3,9 10,2 5 3 - - W 1028,3 10
17.11.2017 12:00:00 10,6 0,9 11,6 8 4 11 6 WNW 1028,3 10
17.11.2017 11:00:00 8,6 6,6 9,0 2 1 4 2 - 1028,6 10
17.11.2017 10:00:00 4,3 4,3 4,1 0 0 - - N 1028,5 10
17.11.2017 09:00:00 1,3 1,3 -1,1 2 1 4 2 W 1028,4 10
17.11.2017 08:00:00 0,0 0,0 -1,9 2 1 4 2 - 1027,9 0,9
17.11.2017 07:00:00 1,0 1,0 -0,8 0 0 - - N 1027,5 1,5
17.11.2017 06:00:00 1,6 1,6 -1,0 2 1 4 2 NNW 1027,4 0,6
17.11.2017 05:00:00 1,8 1,8 -0,4 0 0 4 2 N 1026,9 0,5
17.11.2017 04:00:00 3,5 3,5 0,7 2 1 - - - 1026,7 8
17.11.2017 03:00:00 4,7 4,7 2,3 4 2 7 4 - 1026,5 9
17.11.2017 02:00:00 6,6 6,6 5,4 4 2 7 4 - 1026,0 7
17.11.2017 01:00:00 8,4 8,4 7,8 4 2 - - W 1025,7 3,0
17.11.2017 00:00:00 8,8 8,8 8,5 4 2 14 8 WNW 1025,3 7
16.11.2017 23:00:00 9,2 8,9 9,2 9 5 29 16 N 1024,9 8
16.11.2017 22:00:00 10,0 9,9 9,6 15 8 - - NNW 1024,3 9
16.11.2017 21:00:00 9,0 9,0 8,1 5 3 14 8 SSW 1023,8 3,2
16.11.2017 20:00:00 9,8 9,6 9,3 9 5 18 10 SW 1023,6 4,0
16.11.2017 19:00:00 10,1 9,5 9,8 11 6 - - SW 1023,1 4,5
16.11.2017 18:00:00 10,1 9,5 9,8 9 5 18 10 SW 1022,9 5
16.11.2017 17:00:00 10,3 9,5 10,2 11 6 18 10 SW 1022,5 4,7
16.11.2017 16:00:00 10,4 9,5 10,3 9 5 - - SSW 1022,3 6
16.11.2017 15:00:00 10,2 9,4 10,3 11 6 22 12 SW 1022,4 6
16.11.2017 14:00:00 10,0 9,2 10,1 11 6 22 12 SW 1022,5 5
16.11.2017 13:00:00 9,6 8,8 9,9 13 7 - - SW 1022,9 5
16.11.2017 12:00:00 9,2 8,5 9,2 13 7 25 14 SW 1023,2 6
16.11.2017 11:00:00 9,0 8,4 9,1 16 9 25 14 SW 1023,5 5
16.11.2017 10:00:00 8,9 8,6 8,9 5 3 - - SSW 1023,2 5
16.11.2017 09:00:00 9,0 8,3 8,9 9 5 18 10 SSW 1023,1 5
16.11.2017 08:00:00 8,6 8,3 8,4 9 5 18 10 SSW 1022,9 4,5
16.11.2017 07:00:00 8,6 8,3 8,6 8 4 - - S 1022,8 4,1
16.11.2017 06:00:00 8,8 8,5 8,7 9 5 14 8 SSW 1022,7 4,4
16.11.2017 05:00:00 8,7 8,6 8,7 5 3 14 8 SSW 1023,1 2,9
16.11.2017 04:00:00 8,9 8,8 8,9 8 4 - - S 1023,4 3,3
16.11.2017 03:00:00 9,0 8,9 9,0 5 3 11 6 SSW 1023,8 2,7
16.11.2017 02:00:00 9,0 9,0 8,9 5 3 14 8 SW 1024,0 2,8
16.11.2017 01:00:00 9,0 9,0 9,0 8 4 - - SW 1024,3 2,4
16.11.2017 00:00:00 9,1 9,1 9,0 8 4 14 8 S 1024,4 2,7
15.11.2017 23:00:00 9,2 9,2 9,2 5 3 14 8 SSW 1024,8 2,3
15.11.2017 22:00:00 9,3 9,3 9,3 8 4 - - S 1025,0 2,4
15.11.2017 21:00:00 9,3 9,3 9,2 8 4 11 6 S 1025,0 2,9
15.11.2017 20:00:00 9,5 9,5 9,4 5 3 11 6 S 1024,7 3,3
15.11.2017 19:00:00 9,7 9,7 9,7 4 2 - - SSW 1025,2 2,7
15.11.2017 18:00:00 9,8 9,8 9,8 5 3 11 6 S 1024,9 2,6
15.11.2017 17:00:00 10,0 9,9 9,9 8 4 11 6 SSW 1025,2 2,3
15.11.2017 16:00:00 10,1 10,1 10,3 5 3 - - S 1025,2 2,6
15.11.2017 15:00:00 10,2 10,2 10,4 4 2 14 8 - 1025,1 2,5
15.11.2017 14:00:00 9,9 9,9 10,1 8 4 14 8 SSW 1025,1 2,1
15.11.2017 13:00:00 9,7 9,7 9,9 5 3 - - SSW 1025,2 1,4
15.11.2017 12:00:00 9,4 9,4 9,5 9 5 14 8 SW 1025,7 1,9
15.11.2017 11:00:00 9,2 9,2 9,2 9 5 18 10 SW 1025,8 2,8
15.11.2017 10:00:00 8,9 8,9 9,0 8 4 - - SSW 1025,5 2,6
15.11.2017 09:00:00 8,6 8,6 8,6 9 5 18 10 SW 1025,5 1,8
15.11.2017 08:00:00 8,5 8,5 8,5 8 4 14 8 SSW 1025,0 1,5
15.11.2017 07:00:00 8,4 8,4 8,4 5 3 - - SSW 1024,8 1,8
15.11.2017 06:00:00 8,4 8,4 8,4 11 6 22 12 SW 1024,5 2,1
15.11.2017 05:00:00 8,4 8,4 8,3 8 4 18 10 SSW 1024,6 2,2
15.11.2017 04:00:00 8,3 8,3 8,3 8 4 - - S 1024,6 2,9
15.11.2017 03:00:00 8,4 8,3 8,4 8 4 14 8 S 1025,0 2,4
15.11.2017 02:00:00 8,8 8,4 8,7 5 3 14 8 S 1025,0 4,1
15.11.2017 01:00:00 8,7 8,5 8,6 11 6 - - SSW 1025,1 6
15.11.2017 00:00:00 8,7 8,4 8,5 5 3 18 10 SSW 1024,9 5
14.11.2017 23:00:00 8,3 8,1 8,2 8 4 22 12 SSW 1024,9 5
14.11.2017 22:00:00 8,3 7,9 8,1 13 7 - - SW 1024,9 9
14.11.2017 21:00:00 8,4 7,9 8,2 15 8 22 12 SW 1024,8 6
14.11.2017 20:00:00 8,3 7,8 8,3 13 7 22 12 SW 1024,7 6
14.11.2017 19:00:00 8,6 7,7 8,5 15 8 - - SW 1024,3 10
14.11.2017 18:00:00 8,8 7,3 8,6 13 7 25 14 SW 1024,1 10
14.11.2017 17:00:00 9,0 7,3 8,8 15 8 25 14 SW 1023,9 10
14.11.2017 16:00:00 8,9 7,2 8,6 15 8 - - SW 1023,8 10
14.11.2017 15:00:00 9,1 6,7 9,0 16 9 29 16 SW 1023,6 10
14.11.2017 14:00:00 9,0 6,2 8,9 18 10 29 16 SW 1023,6 10
14.11.2017 13:00:00 8,7 5,4 8,6 21 11 - - SW 1023,9 10
14.11.2017 12:00:00 8,3 5,1 8,6 22 12 36 19 SW 1023,9 10
14.11.2017 11:00:00 7,7 4,9 7,8 18 10 32 18 SW 1024,5 10
14.11.2017 10:00:00 6,5 4,4 6,1 18 10 - - SW 1024,2 10
14.11.2017 09:00:00 5,9 3,8 5,5 15 8 25 14 SSW 1024,1 10
14.11.2017 08:00:00 5,2 3,7 4,7 15 8 25 14 SW 1024,2 10
14.11.2017 07:00:00 5,4 4,3 5,0 11 6 - - SW 1023,9 10
14.11.2017 06:00:00 4,8 4,0 3,5 8 4 14 8 SSW 1023,6 10
14.11.2017 05:00:00 5,1 4,5 4,3 8 4 14 8 SW 1023,9 10
14.11.2017 04:00:00 4,0 3,9 1,9 5 3 - - SW 1024,0 10
14.11.2017 03:00:00 4,8 4,5 3,9 8 4 14 8 SW 1024,4 10
14.11.2017 02:00:00 2,7 2,7 2,2 4 2 7 4 SW 1024,4 10
14.11.2017 01:00:00 1,1 1,0 0,3 2 1 - - W 1024,4 10
14.11.2017 00:00:00 0,8 0,8 -1,6 4 2 4 2 SW 1024,4 10
13.11.2017 23:00:00 0,6 0,6 -1,8 2 1 4 2 - 1024,2 10
13.11.2017 22:00:00 1,1 1,1 -1,2 2 1 - - - 1024,2 10
13.11.2017 21:00:00 1,6 1,6 -1,0 4 2 4 2 NW 1024,0 5
13.11.2017 20:00:00 2,3 2,3 0,1 2 1 4 2 NNW 1023,7 4,1
13.11.2017 19:00:00 4,1 3,8 2,2 4 2 - - - 1023,5 10
13.11.2017 18:00:00 5,1 4,1 3,8 4 2 11 6 - 1022,9 10
13.11.2017 17:00:00 7,4 3,9 6,6 9 5 18 10 N 1022,3 10
13.11.2017 16:00:00 8,9 3,9 8,6 9 5 - - NNW 1022,0 10
13.11.2017 15:00:00 9,1 4,7 8,7 9 5 22 12 NW 1021,3 10
13.11.2017 14:00:00 9,3 4,3 9,9 11 6 43 23 N 1021,2 10
13.11.2017 13:00:00 9,1 4,9 9,4 8 4 32 18 NW 1020,9 10
13.11.2017 12:00:00 8,5 6,0 8,5 5 3 14 8 NNW 1020,8 10
13.11.2017 11:00:00 7,8 5,8 7,9 8 4 14 8 WNW 1020,4 10
13.11.2017 10:00:00 7,3 5,4 7,5 8 4 18 10 NNW 1019,9 10
13.11.2017 09:00:00 6,2 5,0 5,9 5 3 36 19 NW 1019,2 10
13.11.2017 08:00:00 6,1 4,1 5,4 11 6 25 14 NW 1018,3 10
13.11.2017 07:00:00 4,6 3,4 1,4 5 3 14 8 NW 1017,3 10
13.11.2017 06:00:00 5,0 3,7 3,2 8 4 18 10 WNW 1016,5 10
13.11.2017 05:00:00 6,2 4,8 5,9 11 6 32 18 NNE 1016,1 10
13.11.2017 04:00:00 5,1 4,6 2,5 9 5 18 10 NNE 1015,0 10
13.11.2017 03:00:00 6,2 4,7 5,5 9 5 25 14 N 1014,7 10
13.11.2017 02:00:00 5,8 4,2 4,8 8 4 32 18 NW 1013,5 10
13.11.2017 01:00:00 5,8 4,5 5,4 9 5 36 19 NNW 1012,9 10
13.11.2017 00:00:00 5,7 4,4 4,8 13 7 22 12 N 1012,3 10
12.11.2017 23:00:00 5,9 4,3 5,6 11 6 29 16 NNW 1011,4 10
12.11.2017 22:00:00 5,9 4,7 5,6 9 5 - - N 1010,7 10
12.11.2017 21:00:00 5,5 3,5 4,5 13 7 29 16 NNW 1008,9 10
12.11.2017 20:00:00 5,8 4,5 5,2 11 6 25 14 N 1007,7 10
12.11.2017 19:00:00 6,0 4,9 5,8 18 10 - - N 1006,4 10
12.11.2017 18:00:00 5,6 4,7 5,3 11 6 29 16 NNW 1004,8 10
12.11.2017 17:00:00 5,5 4,5 5,2 8 4 29 16 WNW 1003,1 10
12.11.2017 16:00:00 5,7 4,3 5,3 18 10 22 12 WNW 1003,0 4,7
12.11.2017 15:00:00 4,2 3,3 3,8 11 6 54 29 NW 1002,8 10
12.11.2017 14:00:00 5,5 4,2 5,8 29 16 47 25 WNW 1002,3 10
12.11.2017 13:00:00 3,9 2,7 3,9 21 11 43 23 WNW 1002,9 5
12.11.2017 12:00:00 6,9 1,9 6,4 18 10 29 16 WNW 1002,0 10
12.11.2017 11:00:00 7,4 5,6 7,4 13 7 22 12 WSW 1002,3 10
12.11.2017 10:00:00 5,7 4,9 5,7 9 5 14 8 SW 1003,0 10
12.11.2017 09:00:00 5,3 4,6 5,2 8 4 36 19 WSW 1003,3 10
12.11.2017 08:00:00 6,0 4,3 5,6 18 10 29 16 WSW 1004,4 10
12.11.2017 07:00:00 5,4 4,4 4,4 4 2 7 4 SW 1004,7 10
12.11.2017 06:00:00 5,5 4,1 4,7 5 3 11 6 SW 1006,0 10
12.11.2017 05:00:00 5,6 4,3 4,7 5 3 14 8 SSW 1006,9 10
12.11.2017 04:00:00 5,9 4,5 4,8 5 3 11 6 SW 1007,9 10
12.11.2017 03:00:00 5,1 4,4 3,6 4 2 11 6 SW 1008,2 10
12.11.2017 02:00:00 5,3 4,2 4,5 5 3 14 8 SW 1009,1 10
12.11.2017 01:00:00 4,4 4,3 3,1 2 1 7 4 SW 1009,9 10
12.11.2017 00:00:00 4,1 4,0 2,4 2 1 14 8 - 1010,5 10

tt = Température de l'air
td = dewpoint
tt 5cm = Température de l'air 5cm
ff = Vitesse du vent
fx = gusts
dd = Direction du vent
ppp = reduced air pressure
vv = visibility

stations d'obs. à proximité